Home > Weather > Sevilla > Past weeks

Flag for Spain Weather for the Past 2 Weeks in Sevilla, Spain

Now
66 °F

Partly sunny.


Feels Like: 66 °F
Forecast: 52 / 62 °F
Wind: 15 mph from West

Location: Sevilla / San Pablo

Current Time: Feb 11, 2016 at 4:33:19 PM

Latest Report: Feb 11, 2016 at 4:00 PM


Visibility: N/A

Pressure: 30.07 "Hg

Humidity: 78%

Dew point: 59 °F

Location of SevillaLocation

Historic Weather in Sevilla — Graph

°F

Sevilla Temperature Yesterday

Maximum temperature yesterday: 66 °F (at 1:30 PM)
Minimum temperature yesterday: 57 °F (at 5:00 AM)
Average temperature yesterday: 61 °F

High & Low Weather Summary for the Past Weeks

 TemperatureHumidityPressure
High70 °F (Feb 1, 3:30 PM)100% (Jan 28, 1:00 AM)30.60 "Hg (Jan 28, 1:00 AM)
Low41 °F (Feb 8, 7:00 AM)43% (Feb 7, 3:00 PM)30.07 "Hg (Feb 11, 5:30 AM)
Average56 °F78%30.35 "Hg
* Reported Jan 27 3:00 PM — Feb 11 3:30 PM, Sevilla, Weather by CustomWeather, © 2016

Note: Actual official high and low records may vary slightly from our data, if they occured in-between our weather recording intervals... More about our weather records

Advertising

Sevilla Weather History for the Previous 24 Hours

 ConditionsComfort  
Time TempWeatherWind HumidityBarometerVisibility
3:30 PM
Thu, Feb 11
66 °FPartly sunny.17 mph73%30.07 "HgN/A
3:00 PM66 °FBroken clouds.15 mph78%30.07 "HgN/A
2:30 PM64 °FPartly sunny.15 mph78%30.09 "HgN/A
2:00 PM66 °FBroken clouds.14 mph78%30.09 "HgN/A
1:30 PM64 °FCloudy.15 mph78%30.09 "HgN/A
1:00 PM64 °FCloudy.14 mph83%30.12 "HgN/A
12:30 PM64 °FBroken clouds.15 mph78%30.12 "HgN/A
12:00 PM63 °FBroken clouds.14 mph83%30.12 "HgN/A
11:30 AM63 °FBroken clouds.12 mph83%30.12 "HgN/A
11:00 AM63 °FPartly sunny.10 mph83%30.12 "HgN/A
10:30 AM63 °FScattered clouds.8 mph83%30.12 "HgN/A
10:00 AM61 °FPassing clouds.12 mph88%30.12 "HgN/A
9:30 AM61 °FPassing clouds.8 mph88%30.09 "HgN/A
9:00 AM59 °FPassing clouds.5 mph100%30.09 "HgN/A
8:30 AM61 °FScattered clouds.9 mph94%30.09 "HgN/A
8:00 AM61 °FPartly cloudy.8 mph94%30.09 "HgN/A
7:30 AM61 °FPassing clouds.8 mph94%30.09 "HgN/A
7:00 AM61 °FPassing clouds.10 mph94%30.09 "HgN/A
6:30 AM61 °FPartly cloudy.7 mph94%30.09 "HgN/A
6:00 AM59 °FPassing clouds.8 mph100%30.07 "Hg6 mi
5:30 AM59 °FPartly cloudy.7 mph100%30.07 "HgN/A
5:00 AM59 °FLight rain. Passing clouds.8 mph100%30.09 "Hg6 mi
4:30 AM59 °FPassing clouds.7 mph100%30.09 "HgN/A
4:00 AM59 °FRain. Mostly cloudy.8 mph100%30.09 "Hg2 mi
1:00 AM59 °FPassing clouds.10 mph100%30.15 "HgN/A
12:30 AM59 °FPassing clouds.10 mph100%30.15 "HgN/A
12:00 AM59 °FPassing clouds.8 mph100%30.15 "HgN/A
11:30 PM
Wed, Feb 10
59 °FPassing clouds.8 mph100%30.15 "HgN/A
10:30 PM61 °FPartly cloudy.6 mph94%30.15 "HgN/A
10:00 PM61 °FPartly cloudy.8 mph94%30.15 "HgN/A
9:30 PM61 °FPartly cloudy.8 mph94%30.15 "HgN/A
9:00 PM61 °FPartly cloudy.9 mph94%30.15 "HgN/A
8:30 PM61 °FPassing clouds.12 mph94%30.15 "HgN/A
8:00 PM61 °FPassing clouds.10 mph94%30.15 "HgN/A
7:30 PM61 °FPartly cloudy.12 mph94%30.15 "HgN/A
7:00 PM61 °FPartly cloudy.9 mph94%30.15 "HgN/A
6:30 PM61 °FPartly sunny.12 mph94%30.15 "HgN/A
6:00 PM61 °FPartly sunny.13 mph94%30.15 "HgN/A
5:30 PM61 °FBroken clouds.13 mph88%30.15 "HgN/A
5:00 PM61 °FOvercast.9 mph94%30.15 "HgN/A
4:30 PM61 °FLight rain. Overcast.13 mph88%30.15 "Hg4 mi
4:00 PM64 °FOvercast.14 mph73%30.15 "HgN/A
Weather by CustomWeather, © 2016

See weather overviewHow to use our weather pages